Wetbulb
55.63 52.20 49.83 52.06 53.38 53.29 51.95 49.73 49.34 51.60 53.62 52.30 52.31 53.16 55.10 56.63 56.66 56.75 56.81 58.36 59.58 60.41 62.27 63.77 64.25 65.88 67.52 68.86 69.66 71.25 72.95 74.24 72.97 71.87 71.62 71.09 71.24 71.30 71.90 72.23 73.08 73.19 73.54 73.52
52.28 49.58 53.20 53.99 53.10 51.82 51.23 49.22 49.09 51.97 53.30 52.66 52.27 52.13 54.65 55.06 55.94 57.04 57.21 57.96 58.61 60.01 60.66 62.41 62.88 65.47 67.27 68.19 70.11 71.08 72.29 72.91 73.05 72.17 71.91 72.21 71.94 71.99 71.95 72.21 73.42 73.36 73.66 73.52
49.76 51.30 54.22 52.95 51.47 50.13 50.69 48.70 48.90 49.36 52.01 52.02 50.46 48.57 50.86 54.42 56.78 57.61 58.42 58.91 59.08 59.47 60.44 61.61 62.92 64.36 65.66 66.52 68.92 70.38 71.64 72.78 73.61 73.83 73.26 73.10 73.02 72.51 71.89 72.05 72.06 73.24 73.55 73.52
51.46 53.64 51.71 51.26 50.08 51.47 48.10 51.77 50.68 50.19 48.87 44.59 50.95 43.88 50.10 53.05 53.66 55.65 57.29 58.85 59.74 60.64 62.36 63.75 64.01 64.02 63.83 65.48 66.76 67.17 70.81 72.06 73.22 74.74 73.01 72.83 70.58 69.67 71.03 72.17 72.49 72.87 74.29 73.64
49.74 50.95 50.48 49.88 50.39 51.86 49.19 52.20 50.84 50.40 48.15 47.74 47.45 45.33 48.48 52.07 51.72 54.00 56.72 59.00 60.61 62.01 62.80 63.60 64.51 65.21 66.37 65.10 64.67 66.57 67.08 69.59 71.95 72.86 73.35 72.65 72.31 72.43 72.51 73.22 73.56 73.83 74.34 74.68
50.80 54.64 53.06 52.31 52.95 53.00 53.28 51.16 50.56 49.92 48.13 42.63 46.95 46.79 47.05 49.85 51.74 53.68 56.54 59.00 60.15 61.37 62.18 63.09 65.13 66.14 67.06 69.07 67.60 67.99 68.65 69.06 70.74 72.20 72.86 72.89 72.66 72.76 71.96 72.41 72.35 72.95 73.74 74.11
46.71 48.09 53.03 54.10 51.00 53.16 51.77 48.51 41.66 40.21 41.12 40.77 48.03 46.64 48.69 52.12 53.13 54.55 56.01 57.80 60.38 61.53 61.94 62.13 62.76 62.95 64.54 66.35 68.34 69.00 68.40 67.88 69.94 71.42 72.02 72.29 72.26 71.81 71.86 72.06 71.84 72.12 72.04 72.67
43.49 41.74 48.37 52.55 51.50 49.20 48.71 48.10 42.65 36.43 38.44 41.85 48.22 44.95 48.42 53.76 55.07 56.11 57.38 58.71 60.50 61.04 61.48 60.85 61.48 62.04 62.38 63.89 65.41 66.33 65.90 66.68 69.38 70.62 71.23 72.06 72.13 71.75 71.45 71.84 72.08 72.25 72.16 72.75
43.65 44.59 51.06 50.77 52.52 51.63 48.24 46.46 50.36 44.20 45.58 42.57 45.12 48.38 52.38 53.28 53.45 55.26 56.36 58.08 59.37 60.01 59.86 60.15 61.26 62.06 62.57 63.09 64.31 65.09 64.70 64.48 65.43 66.39 68.20 69.58 70.59 70.70 70.96 72.26 73.14 71.99 73.20 72.28
47.09 40.97 48.75 50.67 50.86 51.61 50.24 51.42 44.50 45.35 37.74 36.72 42.46 44.27 45.35 49.74 51.38 53.32 55.95 56.83 58.61 59.00 59.41 60.54 61.08 61.69 62.93 63.72 64.63 64.91 64.91 64.20 64.48 65.12 65.44 65.57 66.61 68.07 69.39 71.06 71.11 71.40 71.62 72.63
47.31 45.16 44.11 47.59 45.65 45.94 47.71 46.80 47.34 47.24 45.18 39.94 38.60 43.02 52.08 51.17 53.00 53.32 55.70 57.28 58.42 58.66 59.34 60.19 60.98 62.10 62.91 63.65 63.77 63.79 63.82 63.68 63.88 64.43 64.87 65.40 66.00 66.69 67.31 67.69 69.65 70.50 70.99 70.08
48.68 44.55 40.00 43.08 47.67 49.25 48.47 46.86 47.53 42.17 41.28 44.72 44.51 43.91 53.89 53.82 54.63 54.31 55.87 57.32 58.93 58.36 59.03 59.98 60.60 61.42 61.81 61.98 61.78 61.43 62.31 62.43 63.56 64.52 64.97 65.03 65.88 66.04 66.19 66.49 67.55 68.49 67.97 68.00
44.16 41.78 37.39 40.67 45.04 47.64 45.73 47.07 47.73 48.00 48.25 43.58 40.52 44.41 52.84 53.44 54.16 55.61 56.00 57.48 56.95 58.05 58.63 59.22 59.86 60.03 59.94 60.17 59.97 60.01 60.27 60.33 60.44 60.61 60.65 61.41 62.42 62.93 64.13 65.09 65.26 65.17 65.12 65.08
44.65 43.29 40.06 37.44 41.93 45.38 42.17 44.93 46.66 46.38 42.34 43.60 44.70 46.32 49.47 51.38 53.40 54.92 56.85 56.87 56.16 57.37 57.48 58.69 59.16 58.97 58.82 58.71 58.97 59.08 59.10 59.82 59.72 59.59 59.10 58.98 59.56 59.93 60.28 61.29 61.48 62.50 63.49 63.22
40.37 36.87 42.51 43.94 45.61 45.35 43.90 43.65 45.01 44.32 45.47 43.00 45.70 46.04 49.25 51.97 53.45 55.74 57.00 54.97 55.22 55.46 56.38 57.84 57.94 58.11 58.07 58.37 58.52 58.46 58.34 58.43 58.58 57.93 57.43 57.14 57.83 58.35 58.57 59.00 59.01 59.74 60.22 60.14
39.88 32.10 34.88 38.02 44.85 45.08 42.45 44.05 44.50 45.34 45.84 46.70 46.70 46.35 51.73 52.95 53.58 55.82 55.08 54.04 54.89 55.21 56.01 57.20 57.41 56.82 56.70 56.81 57.02 57.10 56.91 56.49 56.43 55.76 54.90 55.01 55.28 55.48 56.01 56.54 56.57 57.07 56.48 57.07
35.75 34.17 31.77 27.92 39.66 40.63 37.39 43.64 44.83 45.45 47.17 47.52 44.90 49.25 52.28 51.67 52.32 54.33 54.23 54.81 55.21 55.24 55.52 55.74 56.03 56.44 56.74 56.33 56.11 55.10 55.15 55.47 54.45 53.98 53.73 53.39 53.67 53.47 54.02 53.39 53.46 54.13 54.32 54.85
35.22 33.86 32.49 29.02 30.96 25.42 43.34 49.22 48.50 46.62 47.44 49.40 49.06 50.17 52.16 52.35 53.56 55.56 55.74 55.53 55.31 55.07 55.24 55.55 56.53 56.11 55.24 55.39 54.79 54.82 54.51 53.61 53.09 52.31 52.05 52.22 52.16 52.04 52.42 52.42 52.12 52.06 52.65 52.69
38.25 35.43 31.51 26.19 28.20 34.52 40.70 46.95 47.12 45.79 45.76 50.02 49.58 51.03 51.76 52.90 54.01 52.83 55.72 56.95 55.45 54.99 56.18 56.52 56.09 54.95 54.12 53.74 53.84 53.41 52.35 51.78 51.11 50.21 50.34 50.62 50.42 49.77 49.73 49.87 50.20 50.09 50.26 48.62
38.39 38.97 32.49 31.51 23.91 24.61 43.12 47.56 51.69 50.55 42.19 51.60 51.88 52.21 51.49 52.46 46.43 50.72 55.09 55.68 55.24 55.89 55.96 54.73 54.21 53.31 52.37 52.17 52.68 51.23 50.27 49.86 49.09 49.35 49.41 49.47 49.19 48.53 48.03 48.58 48.09 48.06 47.37 44.83
31.97 33.90 29.67 31.10 28.80 32.51 40.73 47.38 51.64 40.53 44.18 52.57 52.77 52.45 52.85 48.96 52.45 54.30 54.54 54.36 54.72 54.30 54.30 53.94 52.21 50.30 50.27 50.93 50.71 48.82 47.98 47.18 48.38 49.01 48.22 47.66 47.47 46.96 46.95 47.04 46.44 45.57 44.04 43.14
29.88 28.88 29.24 32.03 29.45 26.39 44.95 48.89 44.93 51.10 54.37 53.48 54.00 52.95 51.47 54.20 53.59 52.76 53.54 53.19 52.91 52.39 52.24 51.44 49.35 47.83 47.72 48.21 48.00 45.97 44.72 45.93 46.68 46.40 45.60 44.74 44.42 44.21 44.03 43.49 43.32 43.14 42.05 40.97
28.71 34.23 32.10 31.12 36.37 45.63 51.14 51.48 53.19 53.81 53.33 53.13 53.49 54.14 54.68 54.23 53.42 53.42 51.90 52.48 52.31 51.60 50.55 49.98 47.55 45.48 44.46 44.07 44.28 42.59 42.98 44.58 44.41 43.37 41.74 41.44 41.98 42.51 42.02 40.47 39.66 38.96 38.44 37.56
35.64 38.60 32.74 34.55 37.59 39.06 46.13 53.37 53.67 54.28 53.82 54.68 55.27 55.18 54.44 52.80 52.72 52.03 51.95 50.86 49.56 48.74 46.94 46.19 44.46 41.48 39.75 40.44 40.75 40.40 40.61 42.30 41.30 39.69 40.08 41.13 40.24 39.04 39.46 38.76 37.73 36.28 35.22 35.39
33.79 34.21 32.32 33.52 38.77 40.16 42.54 50.08 53.01 52.90 52.67 53.29 54.96 54.38 53.42 52.76 51.38 51.55 49.16 47.50 46.14 44.62 43.93 43.15 40.26 38.55 38.40 39.31 38.82 38.93 39.10 39.76 39.31 38.83 39.01 39.02 37.78 37.65 37.09 37.11 37.90 36.98 38.41 35.60
35.20 33.26 30.59 31.61 39.01 38.90 39.49 52.80 51.66 52.16 50.65 51.98 52.21 52.02 53.08 52.70 50.83 49.22 46.87 45.10 43.14 41.59 40.13 38.85 37.83 37.92 37.32 37.32 36.86 37.36 38.53 38.48 37.54 37.43 37.07 35.59 35.59 35.47 35.98 35.03 36.00 36.07 34.77 34.65
MSLP
1007.85 1007.21 1006.00 1005.40 1004.94 1004.28 1004.05 1003.38 1002.94 1002.61 1002.54 1002.68 1002.18 1001.62 1000.93 1000.28 999.73 999.06 999.13 999.01 999.26 999.26 999.20 999.24 999.42 999.68 1000.28 1000.84 1001.62 1002.47 1003.73 1005.00 1006.36 1006.88 1007.23 1007.47 1007.28 1007.76 1007.98 1008.18 1008.28 1008.58 1008.93 1009.32
1007.07 1005.32 1005.54 1005.16 1004.77 1004.31 1004.23 1003.76 1003.06 1002.80 1002.43 1002.83 1001.93 1000.86 1000.12 999.72 999.03 998.99 998.76 998.66 998.86 998.93 998.89 999.12 999.85 999.87 1000.18 1000.73 1001.44 1002.09 1002.99 1004.19 1005.33 1006.02 1006.38 1006.44 1006.73 1006.75 1007.08 1007.37 1007.55 1007.85 1008.13 1008.58
1005.39 1004.65 1004.94 1004.86 1004.38 1004.10 1004.12 1003.75 1003.29 1002.89 1002.43 1002.09 1001.55 1000.25 999.03 998.42 999.04 998.97 998.96 998.98 999.10 999.31 999.25 999.59 999.97 1000.20 1000.57 1000.91 1001.34 1001.77 1002.35 1003.20 1004.17 1005.00 1005.59 1005.96 1006.27 1006.24 1006.13 1006.17 1006.39 1006.82 1007.43 1007.72
1004.96 1004.42 1004.21 1004.03 1003.90 1003.95 1003.51 1003.64 1003.44 1003.23 1002.94 1001.62 1000.54 999.18 998.13 998.00 998.07 998.59 998.64 998.91 999.15 999.43 999.75 1000.06 1000.34 1000.79 1001.17 1001.38 1001.53 1001.79 1001.90 1002.53 1003.31 1004.16 1004.72 1005.03 1005.32 1005.29 1005.32 1005.40 1005.40 1005.74 1006.28 1006.93
1004.08 1004.05 1003.84 1003.46 1003.50 1003.86 1003.39 1003.71 1003.49 1003.42 1002.92 1002.15 1000.79 999.70 998.17 997.65 997.02 997.58 998.28 998.80 999.17 999.78 999.99 1000.26 1000.76 1000.97 1001.27 1001.67 1001.96 1002.06 1002.19 1002.18 1002.82 1003.49 1004.31 1004.67 1004.80 1004.89 1004.89 1004.79 1004.80 1004.96 1005.27 1005.67
1004.09 1003.83 1003.08 1003.00 1003.25 1003.29 1003.71 1003.87 1004.11 1004.00 1003.09 1001.56 1000.30 999.46 997.44 996.69 996.40 996.75 997.64 998.78 999.32 999.75 1000.25 1000.47 1000.83 1001.28 1001.49 1001.98 1002.39 1002.58 1002.41 1002.47 1002.89 1003.48 1003.96 1004.49 1004.68 1004.64 1004.66 1004.60 1004.65 1004.61 1004.64 1004.95
1003.89 1003.07 1003.01 1002.84 1002.97 1002.90 1003.37 1003.71 1003.64 1003.00 1001.86 1000.42 999.55 998.10 996.60 996.11 996.33 996.25 996.96 998.55 999.24 999.65 1000.01 1000.32 1000.65 1001.27 1001.81 1002.13 1002.52 1002.78 1002.95 1003.17 1003.33 1003.60 1003.87 1004.13 1004.37 1004.57 1004.50 1004.44 1004.39 1004.28 1004.10 1004.20
1002.71 1001.97 1002.14 1002.45 1002.30 1002.64 1003.03 1002.98 1002.75 1001.13 1000.81 999.62 998.10 996.81 996.77 996.55 996.72 997.11 996.92 998.28 999.14 999.54 1000.03 1000.56 1000.84 1001.11 1001.82 1002.26 1002.84 1002.84 1002.84 1002.90 1003.29 1003.61 1003.81 1003.97 1004.16 1004.08 1004.01 1003.91 1003.90 1003.80 1003.73 1003.65
1002.97 1001.16 1000.80 1000.89 1001.58 1002.71 1002.55 1002.24 1002.29 1002.24 1001.67 1000.20 998.56 997.31 996.77 996.76 997.11 997.07 997.54 998.54 998.99 999.46 999.96 1000.56 1001.11 1001.58 1002.13 1002.49 1003.05 1003.27 1003.17 1003.13 1003.30 1003.55 1003.60 1003.63 1003.81 1003.92 1003.78 1003.69 1003.70 1003.65 1003.60 1003.47
1004.03 1002.97 1002.05 1000.82 1000.59 1001.00 1001.63 1002.46 1002.08 1002.22 1001.43 1000.02 998.64 997.46 996.24 995.99 995.50 996.79 997.65 998.39 998.99 999.38 999.99 1000.66 1001.41 1002.06 1002.43 1002.83 1003.30 1003.67 1003.68 1003.63 1003.91 1004.04 1004.11 1003.99 1003.90 1003.78 1003.76 1003.70 1003.67 1003.69 1003.54 1003.33
1005.35 1004.36 1003.71 1003.16 1001.37 1000.98 1000.86 1001.61 1001.97 1001.30 1000.88 999.71 998.59 996.89 996.04 995.30 994.85 995.66 996.86 997.96 998.92 999.73 1000.14 1001.12 1001.85 1002.31 1002.77 1003.11 1003.52 1003.94 1004.13 1004.20 1004.31 1004.39 1004.45 1004.43 1004.33 1004.27 1004.11 1003.98 1003.77 1003.65 1003.51 1003.46
1007.58 1006.85 1004.61 1003.23 1003.16 1002.44 1001.66 1001.14 1001.23 1000.89 1000.41 999.47 998.48 997.14 996.08 995.70 995.83 995.80 996.20 997.63 999.15 1000.26 1000.64 1001.38 1001.97 1002.71 1003.27 1003.59 1003.91 1004.53 1004.86 1004.86 1004.95 1004.91 1004.90 1004.83 1004.66 1004.49 1004.28 1004.06 1003.87 1003.80 1003.69 1003.43
1011.77 1009.10 1006.67 1004.20 1003.53 1003.06 1002.76 1002.71 1001.02 1000.58 1000.67 998.87 997.78 996.43 996.69 995.98 995.53 996.34 996.26 997.78 999.54 1000.67 1000.99 1001.67 1002.37 1002.93 1003.43 1004.03 1004.55 1005.09 1005.45 1005.41 1005.54 1005.56 1005.56 1005.51 1005.22 1004.99 1004.78 1004.64 1004.54 1004.41 1004.20 1003.94
1012.90 1011.25 1008.86 1006.35 1003.29 1002.83 1002.53 1002.01 1001.22 1000.21 999.31 998.86 997.74 996.41 996.15 995.61 995.88 996.33 996.88 998.41 999.85 1000.74 1001.22 1001.89 1002.79 1003.51 1004.09 1004.68 1005.08 1005.48 1005.84 1005.96 1006.13 1006.18 1006.22 1006.13 1005.86 1005.67 1005.56 1005.20 1004.87 1004.76 1004.59 1004.47
1014.18 1013.07 1010.41 1007.57 1005.14 1003.61 1002.42 1001.63 1000.98 1000.08 999.18 998.11 997.31 996.63 996.00 995.71 995.40 996.24 997.08 998.76 1000.07 1000.96 1001.38 1002.03 1003.04 1003.86 1004.65 1005.28 1005.68 1005.97 1006.09 1006.49 1006.73 1006.77 1006.68 1006.64 1006.38 1006.12 1006.07 1005.87 1005.61 1005.14 1004.94 1004.94
1014.89 1014.40 1012.81 1008.94 1005.48 1004.30 1002.75 1001.59 1000.97 999.94 999.77 998.07 996.33 995.87 995.51 995.40 995.41 996.16 997.51 998.74 999.98 1000.78 1001.50 1002.37 1003.30 1004.23 1005.16 1005.54 1005.91 1006.16 1006.51 1007.07 1007.25 1007.35 1007.29 1007.34 1007.08 1006.80 1006.67 1006.51 1006.26 1005.81 1005.26 1005.19
1015.01 1014.88 1013.95 1010.66 1007.81 1005.79 1002.48 1000.42 998.98 998.56 998.46 997.35 995.57 994.80 995.42 995.23 995.26 996.13 997.44 998.58 999.72 1000.55 1001.68 1002.78 1003.73 1004.52 1005.50 1005.93 1006.26 1006.75 1007.23 1007.73 1007.82 1007.74 1007.61 1007.61 1007.65 1007.42 1007.49 1007.26 1006.99 1006.68 1006.04 1005.46
1013.75 1014.17 1014.62 1012.31 1010.78 1006.46 1000.70 999.91 998.78 997.76 997.29 996.71 995.76 994.77 994.42 994.77 995.30 996.23 997.55 998.68 999.84 1001.10 1002.26 1003.32 1004.23 1005.12 1005.90 1006.53 1007.06 1007.42 1007.82 1008.11 1008.29 1008.28 1008.09 1008.05 1008.22 1008.23 1008.12 1007.82 1007.57 1007.26 1006.89 1006.50
1012.34 1012.97 1013.31 1013.10 1010.74 1006.70 1001.48 998.63 997.57 996.82 995.57 996.28 995.87 995.32 995.14 995.79 996.44 997.60 998.13 999.32 1000.77 1001.99 1002.75 1003.89 1004.91 1005.64 1006.78 1007.35 1007.92 1008.17 1008.54 1008.87 1009.03 1009.01 1008.87 1008.87 1009.09 1008.99 1008.69 1008.34 1008.24 1008.04 1007.66 1007.94
1010.14 1011.00 1012.05 1011.70 1010.78 1006.98 999.02 997.62 996.83 996.43 995.42 994.63 994.90 995.02 995.23 996.61 998.02 998.13 999.72 1000.55 1001.93 1002.82 1003.56 1004.54 1005.52 1006.40 1007.48 1008.26 1008.65 1009.02 1009.33 1009.63 1009.74 1009.93 1009.82 1009.88 1009.76 1009.58 1009.32 1009.09 1009.07 1008.85 1008.78 1009.11
1009.91 1009.46 1009.39 1008.99 1009.18 1005.85 1001.57 998.83 995.97 994.88 994.32 993.95 994.46 994.71 995.43 996.90 997.05 998.28 1000.26 1001.44 1002.45 1003.10 1004.17 1005.34 1006.66 1007.61 1008.44 1009.04 1009.40 1010.10 1010.82 1010.86 1010.84 1010.78 1010.64 1010.73 1010.65 1010.48 1010.42 1010.26 1010.17 1009.90 1009.85 1009.96
1009.63 1009.57 1009.68 1008.55 1007.32 1005.13 1001.38 998.38 996.00 994.82 994.31 994.58 994.93 995.44 996.19 997.40 998.70 999.91 1001.01 1001.89 1003.00 1004.01 1005.26 1006.72 1007.85 1008.81 1009.71 1010.15 1010.62 1011.17 1011.69 1011.85 1011.54 1011.78 1011.72 1011.84 1012.05 1011.97 1011.93 1011.65 1011.41 1011.11 1010.95 1010.81
1008.68 1008.36 1007.97 1008.77 1005.70 1002.39 1000.22 997.20 995.42 995.09 994.78 995.19 995.63 995.71 996.47 997.88 999.54 1000.78 1001.92 1002.92 1004.18 1005.55 1006.38 1007.61 1008.87 1009.99 1011.30 1011.87 1012.04 1012.34 1012.65 1012.36 1012.49 1012.65 1012.69 1012.77 1012.78 1012.59 1012.44 1012.36 1012.21 1011.85 1011.80 1011.59
1008.46 1008.51 1008.12 1007.17 1004.86 1004.67 1002.10 997.84 997.05 996.21 995.77 995.87 995.91 996.58 998.03 998.84 1000.56 1001.74 1002.99 1004.37 1005.62 1006.58 1007.91 1009.24 1010.31 1011.50 1012.59 1013.18 1013.32 1013.51 1013.63 1013.23 1013.34 1013.48 1013.44 1013.25 1013.45 1013.33 1013.26 1013.10 1013.04 1012.70 1012.55 1012.29
1009.74 1009.82 1008.72 1007.20 1004.78 1003.88 1001.57 997.95 996.80 996.99 996.52 996.07 997.71 997.73 998.59 1000.14 1001.64 1002.95 1004.48 1005.92 1007.20 1008.43 1009.37 1010.42 1011.65 1012.60 1013.33 1013.87 1014.13 1014.38 1014.42 1014.16 1013.82 1013.87 1013.91 1013.81 1013.95 1013.79 1013.62 1013.48 1013.64 1013.42 1013.17 1013.09
1008.55 1008.34 1007.67 1004.31 1004.12 1004.20 1001.51 996.88 997.08 996.68 996.74 998.36 999.15 999.26 999.97 1000.98 1003.16 1004.65 1006.16 1007.51 1008.90 1009.95 1011.12 1011.68 1012.70 1013.50 1014.18 1014.67 1014.95 1014.95 1014.89 1014.69 1014.47 1014.17 1014.41 1014.80 1014.66 1014.42 1014.24 1013.98 1013.60 1013.28 1013.20 1013.06
Wind_Speed
19 17 18 20 20 18 19 18 17 16 9 15 17 19 16 17 18 14 14 15 15 18 17 18 9 11 13 15 15 18 17 16 12 13 13 13 12 12 12 13 16 16 14 16
21 23 20 21 19 19 17 20 19 18 13 8 16 21 18 20 16 11 10 8 9 9 9 8 8 10 11 14 14 15 18 18 15 13 12 11 11 11 12 12 13 15 15 16
25 24 22 22 24 17 20 20 20 20 17 14 20 22 25 14 7 7 6 4 3 4 4 3 6 7 9 13 15 16 17 17 17 16 11 9 10 10 11 12 12 13 16 16
23 21 24 16 21 18 22 18 20 19 16 13 4 14 14 10 12 11 8 7 5 5 5 5 3 1 4 9 10 13 14 16 15 16 13 13 12 12 12 10 11 12 16 16
24 25 22 25 22 17 20 16 12 13 17 17 20 13 15 21 12 14 10 10 8 7 6 8 8 9 8 4 2 6 10 13 13 13 13 11 12 9 9 9 12 12 11 15
29 25 23 24 21 22 22 13 13 16 15 17 20 18 18 16 16 15 13 12 11 11 8 9 9 8 10 10 8 4 5 6 8 10 12 14 13 11 9 9 9 8 8 9
31 30 26 18 22 20 15 14 11 13 15 17 19 21 17 15 10 10 16 13 13 10 9 9 8 9 8 9 9 6 5 4 5 8 10 12 13 13 13 11 9 10 8 8
24 28 31 28 25 22 19 21 14 22 16 17 20 12 12 14 15 10 12 13 13 12 10 8 8 8 8 9 8 6 4 3 4 5 7 8 11 9 9 11 10 9 9 9
23 30 23 32 29 23 25 21 26 22 22 20 21 21 11 11 10 11 13 13 16 14 12 11 9 7 8 6 6 6 6 6 6 7 7 7 8 11 11 12 10 8 9 10
22 26 28 25 25 31 30 22 19 15 21 25 21 23 17 23 21 15 17 17 16 14 12 8 7 6 7 7 7 8 8 8 8 8 8 8 10 10 11 10 11 11 11 11
22 21 22 25 24 21 19 20 25 20 16 19 19 17 19 15 10 14 21 18 15 12 9 7 6 7 8 8 10 11 12 13 11 10 10 10 9 10 10 10 11 11 10 9
20 12 17 26 25 28 24 22 27 18 26 16 19 18 20 15 11 11 15 18 12 11 9 7 6 8 8 9 11 12 11 12 12 12 12 11 10 10 10 10 12 10 8 7
18 8 11 26 20 20 26 29 28 23 22 23 18 16 17 19 12 12 13 18 14 12 10 8 7 7 9 10 10 10 10 12 11 11 12 11 11 12 12 12 11 10 10 11
12 15 17 17 25 19 23 33 31 27 18 19 23 28 23 20 13 13 13 16 16 14 11 10 8 8 9 8 8 8 9 10 10 10 11 12 12 12 12 11 11 11 11 10
5 11 21 23 27 29 26 28 29 33 23 26 25 26 27 24 17 17 18 17 16 13 11 11 9 8 8 6 6 7 8 9 9 9 10 11 11 11 12 12 11 10 11 11
6 7 20 20 30 28 30 29 28 30 31 37 32 31 27 24 13 16 19 18 16 14 12 12 11 10 7 6 6 6 8 8 9 9 10 11 12 12 12 12 12 12 11 12
15 6 5 14 23 27 26 28 33 32 32 31 25 25 21 23 17 12 18 17 17 14 14 13 11 9 7 7 6 7 7 7 7 8 10 11 11 11 11 11 13 13 12 11
22 19 8 15 19 19 17 24 31 28 30 31 30 28 17 16 18 16 16 16 14 15 13 12 10 9 8 7 7 6 7 8 8 9 10 11 11 11 11 12 12 13 11 11
24 18 11 11 15 27 33 20 23 28 31 29 33 29 22 4 13 7 9 11 12 13 12 10 10 11 9 8 8 8 8 9 10 11 11 12 12 11 12 12 12 12 12 12
24 24 17 13 11 11 18 14 23 22 25 27 28 26 18 15 9 10 11 14 14 13 12 12 12 12 10 8 8 9 9 9 10 10 10 11 11 12 12 12 12 11 11 11
16 16 20 20 15 18 26 36 18 16 9 13 21 17 14 12 11 19 17 16 14 13 13 13 12 11 10 9 9 9 9 10 10 9 10 10 11 11 13 12 11 11 11 9
23 15 11 18 19 26 19 29 28 13 7 5 4 11 17 11 17 18 17 16 15 14 14 13 12 12 11 10 8 9 9 7 8 9 10 11 11 9 9 11 10 10 10 9
26 21 17 9 7 16 27 23 16 20 9 6 12 18 19 18 18 17 16 16 14 13 13 12 12 13 11 10 9 9 9 9 10 9 8 8 8 8 8 9 9 8 10 9
25 21 17 18 28 31 34 8 5 3 6 8 14 18 17 20 19 17 15 14 13 13 13 12 12 12 11 9 11 10 9 8 7 7 8 8 9 10 9 7 7 7 7 7
11 13 15 23 27 25 31 39 11 8 8 9 12 19 20 18 17 17 15 14 13 13 13 12 12 11 10 9 10 10 9 8 7 7 8 9 8 9 9 8 6 5 5 6
13 19 18 24 23 16 32 12 10 17 17 14 15 16 16 18 15 17 15 13 13 13 12 12 12 11 10 9 9 9 8 8 8 7 7 7 7 7 7 8 7 4 3 8
Wind_Direction
216 229 232 240 243 248 280 286 277 276 278 283 279 280 276 283 286 283 266 252 249 250 249 255 263 231 220 220 214 203 200 192 195 204 206 213 217 218 220 223 225 223 220 209
237 230 242 255 257 272 257 266 267 272 264 285 273 276 282 281 277 277 284 272 268 263 236 219 248 242 214 227 221 221 206 201 201 211 215 218 217 223 222 224 222 224 221 220
240 244 229 248 254 250 253 257 268 275 290 274 275 269 268 243 231 246 236 256 259 259 263 239 249 237 238 236 235 224 218 209 207 213 213 220 230 233 226 222 222 217 222 222
252 253 255 239 258 235 252 251 254 261 267 269 273 280 285 221 208 207 201 216 198 152 136 110 92 66 267 265 252 240 229 211 214 206 220 222 230 230 234 233 230 225 212 219
249 244 243 252 241 238 257 281 276 270 267 272 262 252 259 262 215 215 194 191 173 150 126 102 84 77 73 88 177 225 234 229 217 208 218 227 240 246 250 245 240 231 224 218
248 256 241 239 255 236 260 264 248 259 257 253 253 252 261 254 215 231 171 187 171 164 147 122 104 89 80 73 78 104 168 187 211 216 219 229 252 251 248 255 256 255 241 233
239 242 243 241 255 244 250 213 239 234 229 250 251 246 243 242 282 242 178 191 180 173 160 144 125 99 79 81 82 85 102 149 205 214 225 229 235 246 257 257 258 261 251 242
228 239 228 237 220 241 213 224 232 240 252 258 247 234 252 264 262 250 175 188 179 170 155 150 130 113 98 82 60 61 65 110 172 213 242 246 251 250 252 252 250 258 253 255
258 255 236 221 227 216 248 222 241 257 271 277 279 275 236 237 230 239 207 186 191 175 166 157 130 100 86 77 70 46 24 14 2 341 310 281 274 276 277 274 273 270 266 264
253 266 274 271 231 221 221 248 233 237 252 257 258 261 264 256 220 211 213 198 200 178 172 151 119 105 81 71 67 47 31 32 13 359 346 332 325 308 294 283 271 266 270 273
267 268 248 275 276 260 212 223 251 247 241 241 253 253 257 288 218 227 198 203 202 192 168 146 114 85 67 58 55 41 35 32 27 18 11 0 351 337 321 305 298 290 301 315
334 303 258 246 247 271 288 255 224 238 239 244 244 253 276 298 292 253 206 186 186 188 167 138 122 106 82 65 59 51 45 44 38 36 35 25 13 359 350 336 336 326 283 252
356 318 291 253 241 242 259 263 272 233 247 246 253 242 240 255 226 248 233 167 176 186 160 142 128 100 83 72 64 58 46 43 36 34 38 30 25 20 14 11 2 355 352 348
359 265 248 258 248 241 232 243 252 252 236 243 246 258 252 260 221 210 181 170 180 184 162 141 125 102 91 87 78 65 50 40 29 26 27 24 16 13 7 9 14 6 358 358
59 280 274 270 262 261 252 256 251 256 257 247 250 250 256 259 242 193 179 175 181 174 164 148 138 128 122 111 91 66 54 38 20 17 21 16 9 6 358 358 359 8 8 358
90 278 317 295 266 246 253 238 250 251 256 266 245 249 255 261 261 175 176 183 183 179 165 153 149 141 132 100 78 54 45 32 16 20 21 16 6 2 2 358 354 357 9 5
283 270 305 284 318 305 242 239 236 240 247 262 255 242 246 259 264 189 179 184 190 171 160 160 149 132 119 87 61 50 45 31 19 18 20 19 5 5 1 1 358 354 357 6
262 254 270 280 304 281 253 243 245 241 243 255 266 265 252 257 272 178 188 186 173 160 155 143 136 112 86 72 56 57 37 33 25 22 24 21 12 2 4 356 2 357 355 2
243 252 257 255 273 288 284 263 249 233 236 240 250 258 263 283 91 115 155 170 155 150 136 117 108 100 79 61 50 48 40 32 31 23 22 19 7 1 1 1 4 2 6 18
233 229 227 221 236 298 273 248 254 215 239 236 234 239 232 140 175 174 164 141 138 137 130 123 107 91 81 58 63 52 44 37 30 20 21 14 8 4 7 6 11 8 20 27
266 280 214 228 234 244 264 288 249 204 223 248 241 231 163 170 206 130 143 141 138 125 115 104 96 88 75 66 64 63 42 28 16 14 17 17 12 11 16 16 19 22 32 38
259 256 254 240 222 246 256 264 246 237 176 67 176 139 146 159 121 137 147 141 129 125 128 117 104 89 70 57 66 60 47 20 18 21 22 23 18 15 14 13 11 16 11 4
251 248 253 236 238 300 285 277 260 242 291 174 163 170 175 149 146 149 137 139 130 130 113 108 102 92 73 60 51 61 32 24 20 28 22 18 18 11 16 16 6 5 5 2
264 274 283 268 247 255 283 240 276 283 230 196 159 142 146 142 149 142 135 126 122 107 97 95 97 86 73 58 54 47 27 21 30 21 9 13 10 359 8 7 1 359 355 348
256 307 294 282 274 279 272 261 169 139 106 116 159 148 138 138 137 137 127 116 109 112 109 100 92 87 77 64 56 44 30 25 25 17 13 11 6 2 358 359 350 345 345 346
245 260 258 267 273 288 290 208 169 144 131 144 146 118 119 127 131 120 116 111 109 107 103 96 93 89 80 70 57 40 35 30 16 20 20 12 358 356 352 345 334 302 313 337